Wind_Speed
8 7 7 5 6 8 6 0 2 3 3 5 8 10 12 10 11 10 13 19 21 20 21 15 12 14 13 13 10 8 8 7 7 8 7 8 9 8
8 5 11 8 11 13 14 13 9 3 2 7 8 10 10 13 12 15 18 21 21 20 20 21 15 13 13 12 12 10 10 9 9 10 9 9 10 10
9 9 10 9 9 11 11 11 10 13 3 6 7 9 11 16 19 19 19 21 23 26 27 24 17 14 15 15 15 14 12 11 11 11 11 10 10 11
11 10 10 9 11 9 9 9 9 9 9 10 10 10 17 22 20 19 17 15 15 17 17 16 19 16 18 19 21 22 19 15 14 13 13 13 10 11
10 11 10 9 9 8 11 11 9 9 9 9 11 14 14 20 17 18 16 14 14 20 21 18 19 16 17 22 23 23 20 15 16 17 16 15 13 11
9 10 10 8 9 9 9 9 9 11 12 13 15 17 14 16 14 17 21 21 22 21 19 21 26 21 22 23 26 25 20 9 9 13 16 15 14 13
8 9 8 5 6 10 10 10 10 12 12 13 15 17 18 20 21 21 21 22 24 18 22 28 26 29 28 25 24 20 21 12 11 12 13 13 13 12
5 9 7 8 7 9 11 10 11 10 11 11 13 13 15 16 19 20 19 20 8 19 28 29 26 25 25 25 24 21 11 17 18 17 14 15 14 15
4 5 5 8 10 9 5 3 2 3 6 9 12 14 16 17 18 20 21 22 20 28 25 20 24 21 22 23 21 21 14 18 20 18 18 21 22 19
4 3 2 3 6 6 4 3 2 2 3 5 7 10 12 15 19 22 23 23 23 19 19 12 16 23 27 28 21 20 25 22 21 20 20 22 26 26
7 5 5 5 7 7 7 6 5 3 6 7 8 9 12 15 17 16 17 14 15 17 11 14 19 25 23 20 15 23 20 25 24 23 22 24 24 22
4 3 4 7 8 8 9 10 10 11 14 13 9 13 18 14 21 18 15 13 13 6 13 21 23 20 11 6 26 21 28 26 25 20 24 24 22 19
2 3 5 7 8 10 9 8 8 11 11 12 12 13 16 18 20 17 17 18 17 11 23 24 18 22 16 22 19 24 24 26 26 29 29 24 25 28
1 3 6 5 4 5 7 8 7 8 11 13 16 21 22 23 20 17 16 16 15 17 22 26 17 23 19 15 14 25 25 24 24 29 29 31 29 26
3 6 3 2 3 6 10 4 8 12 13 16 20 20 19 18 18 21 21 20 18 20 22 23 25 27 21 17 19 23 26 25 24 26 24 27 26 26
4 5 9 10 8 14 13 15 16 15 16 16 16 17 17 19 21 23 24 25 20 24 20 22 27 31 31 24 24 19 19 15 28 33 39 35 34 32
7 11 9 8 10 12 14 15 15 16 18 18 19 20 21 23 25 22 23 24 20 23 27 33 30 25 20 22 16 23 22 23 28 34 35 34 30 27
4 5 9 12 15 16 17 17 19 18 19 18 19 19 21 22 23 23 23 22 21 23 25 27 31 30 28 15 11 28 26 34 36 30 28 29 34 31
4 11 14 15 14 14 15 15 16 16 16 18 18 20 21 22 23 23 23 22 22 23 23 25 26 25 21 13 21 9 35 31 30 32 27 26 32 41
10 15 16 14 14 13 12 14 14 15 16 17 18 19 20 21 22 23 23 23 23 23 22 22 21 24 23 21 28 39 28 30 31 35 36 37 35 37
14 14 13 12 11 11 10 11 13 14 14 15 17 18 20 20 21 22 23 24 23 22 24 24 27 27 26 26 26 33 31 26 23 31 37 36 38 43
13 11 10 8 7 6 7 8 11 12 11 12 14 15 17 17 19 21 22 22 22 22 24 26 29 29 27 25 28 33 39 43 36 28 28 29 31 20
8 8 7 6 7 5 4 6 7 8 8 9 12 14 14 16 17 21 20 20 21 23 24 28 29 27 26 27 31 33 35 36 37 40 34 29 31 33
Wind_Direction
285 336 346 348 359 21 72 16 289 200 262 268 257 313 343 271 312 292 293 307 314 330 325 318 328 316 332 343 336 329 331 328 330 327 310 290 290 300
278 300 320 332 331 351 349 346 6 43 210 234 230 331 318 323 318 300 292 296 316 330 325 321 313 307 318 334 342 334 324 321 318 321 321 301 284 282
263 274 287 309 322 330 332 342 5 21 314 351 309 320 308 292 320 319 315 296 313 320 317 317 304 298 301 318 321 318 321 320 315 307 314 310 285 277
255 266 274 271 287 297 302 321 347 346 343 327 328 316 323 340 343 322 326 327 335 14 8 21 360 310 297 317 322 315 302 300 305 302 299 312 296 275
269 277 272 273 300 289 298 310 331 349 353 352 353 360 15 16 3 357 13 1 309 338 341 343 347 345 333 320 320 319 319 288 285 294 296 302 298 285
255 262 269 274 285 288 289 297 301 312 331 336 333 332 338 339 351 357 343 339 336 342 346 337 335 340 340 335 330 325 316 306 303 294 293 292 293 286
253 267 269 270 259 267 277 276 281 303 306 312 316 322 331 340 344 339 334 339 339 346 340 335 346 346 346 348 347 336 319 312 330 324 321 312 304 291
272 276 289 290 277 269 263 273 277 289 298 304 306 307 310 319 323 323 327 333 331 329 331 332 345 341 358 352 353 344 346 333 325 313 310 314 314 311
277 287 278 282 299 319 328 243 277 323 326 315 310 304 297 308 311 309 308 309 302 316 326 318 332 334 343 338 341 348 5 353 344 334 320 309 304 301
216 224 238 324 347 354 0 10 25 345 358 339 324 309 303 305 300 300 301 304 310 325 330 313 346 336 338 338 340 338 345 346 349 352 343 338 325 304
92 95 61 52 40 35 23 32 50 353 346 341 333 333 341 333 346 322 318 325 317 325 345 343 323 326 333 339 352 341 336 339 345 333 339 335 329 332
94 90 45 27 15 11 6 1 356 356 352 353 7 23 51 71 23 29 12 354 344 335 341 326 323 328 320 314 327 336 338 346 348 339 338 337 339 327
50 329 325 321 331 334 340 337 345 350 5 9 13 15 21 23 24 29 28 25 8 355 2 5 348 352 328 316 326 328 334 336 335 331 330 323 330 325
346 317 326 336 5 29 36 41 34 27 23 27 41 33 27 21 22 23 18 11 11 18 10 14 15 9 356 339 347 340 349 349 343 343 334 332 329 336
326 331 355 30 79 52 14 355 38 71 65 45 33 30 26 19 10 3 1 359 9 14 20 13 10 359 359 344 328 332 340 347 350 357 348 348 342 342
336 77 70 80 80 93 72 68 60 52 48 39 30 19 13 12 14 16 14 6 8 5 5 358 354 354 348 343 335 338 351 348 343 342 338 333 331 329
82 84 80 66 65 57 52 44 38 32 32 26 27 24 26 16 13 10 9 7 15 3 356 352 354 352 344 347 344 354 355 352 346 340 341 328 327 329
109 75 80 76 71 63 60 56 47 49 39 34 33 31 30 24 19 20 17 15 7 1 358 359 356 353 355 350 317 340 339 338 334 332 334 331 320 322
39 103 96 86 74 67 61 52 44 35 37 35 34 31 28 27 24 20 13 8 3 358 357 358 360 2 349 335 325 324 335 329 327 326 329 327 316 311
107 95 87 84 78 70 58 49 41 39 42 40 37 32 26 22 21 15 11 5 356 350 348 351 355 349 334 316 307 311 322 320 324 320 319 317 308 308
108 97 89 85 77 70 62 55 52 49 47 41 34 27 20 18 13 8 2 357 354 350 342 337 334 333 327 322 314 310 313 317 313 313 310 311 314 316
99 102 95 88 90 83 69 56 53 43 36 31 22 13 8 8 6 1 356 350 345 337 327 325 328 330 326 320 310 309 312 316 316 312 305 297 297 298
121 110 102 116 117 102 76 57 51 48 39 22 12 4 4 5 1 355 348 343 338 333 330 325 325 325 320 316 312 310 310 313 314 314 310 308 302 302
Height
871 873 875 875 873 874 874 875 874 878 874 867 869 863 859 861 858 856 857 854 853 852 848 845 842 841 839 836 834 833 831 829 828 826 825 823 823 823
872 871 871 871 870 869 870 872 872 872 873 868 867 863 861 858 855 854 854 853 852 849 846 843 841 839 837 835 833 831 830 828 827 825 823 822 821 821
871 872 871 869 871 870 871 871 870 868 867 866 863 862 860 858 853 853 853 851 849 846 842 839 838 837 836 833 832 831 829 826 825 823 821 820 820 819
871 871 870 870 869 869 869 869 867 866 865 864 862 861 857 855 851 849 848 847 848 845 842 838 836 835 834 832 830 828 826 824 822 820 818 817 816 816
867 868 867 867 865 865 865 863 863 863 863 863 860 858 856 853 850 848 847 846 846 845 840 837 835 833 832 829 827 825 821 818 817 816 815 814 813 812
865 866 866 864 864 863 862 862 862 861 859 858 856 855 853 851 850 849 845 845 843 840 837 835 832 829 827 825 823 820 818 814 813 812 812 810 809 808
861 862 863 861 861 861 860 860 860 859 857 856 855 852 851 850 849 849 848 844 840 839 836 832 829 827 823 821 818 815 811 812 810 809 808 806 805 805
859 857 859 858 857 857 857 857 857 857 856 855 853 853 852 852 851 849 846 844 842 839 836 830 829 825 824 822 819 815 811 811 809 808 806 804 803 802
856 856 856 856 856 856 854 855 856 855 855 854 853 852 851 851 849 846 844 843 841 836 835 831 828 825 823 821 818 815 811 810 808 805 803 801 800 799
853 854 855 855 855 854 853 852 853 852 852 851 851 850 849 848 846 843 841 838 836 835 834 830 826 824 821 818 815 813 809 807 805 803 800 798 796 795
853 854 854 855 854 853 852 852 851 850 850 849 849 848 846 844 841 838 836 836 833 831 831 830 826 822 818 815 812 810 807 805 802 799 797 796 793 791
855 855 855 855 854 853 852 851 851 849 847 846 845 844 843 841 839 838 837 836 833 830 831 829 824 821 814 811 810 807 805 802 800 798 795 793 791 788
856 856 855 854 854 853 850 849 849 849 848 846 845 844 843 842 841 839 837 836 835 833 832 827 824 820 818 811 806 804 803 800 798 794 792 789 788 785
853 852 854 854 852 852 850 849 849 847 847 847 845 843 841 841 840 838 836 835 834 833 831 828 825 823 820 813 809 805 801 799 796 792 789 786 783 780
852 851 851 852 851 851 850 847 847 845 845 845 846 844 843 841 838 834 833 831 831 829 828 826 824 823 820 817 813 807 801 796 794 792 788 786 782 779
851 850 850 849 849 849 849 849 847 847 847 848 846 847 844 840 839 837 834 831 829 827 827 825 824 821 816 814 812 807 804 802 796 792 787 782 779 777
849 850 849 851 849 850 850 850 849 849 847 848 846 846 845 843 841 839 837 835 835 832 828 824 823 820 818 816 809 807 803 799 797 793 787 780 775 774
849 850 850 850 850 851 852 852 852 851 851 851 848 849 846 845 844 841 841 840 837 834 831 827 822 817 811 810 811 806 802 800 794 791 788 783 771 769
849 850 850 849 851 853 854 854 854 853 851 850 851 850 848 847 844 843 843 842 840 837 835 832 828 826 820 813 807 808 806 799 795 789 785 782 774 762
852 851 850 852 852 853 854 854 854 854 854 854 854 851 850 848 847 847 847 844 842 838 836 834 832 832 829 822 812 803 807 801 795 787 778 772 768 761
849 849 851 852 854 855 856 856 856 856 856 855 855 854 853 851 850 848 847 845 842 839 836 834 832 830 825 819 810 800 798 800 796 790 780 771 760 746
849 850 852 854 854 855 857 857 856 856 856 856 856 856 855 854 852 850 848 846 843 841 838 833 828 824 821 818 809 801 790 783 784 782 781 776 769 755
851 852 854 854 855 856 856 857 858 858 857 857 858 858 856 853 852 851 848 846 843 840 836 831 827 825 820 815 808 799 791 783 775 766 763 765 761 755